| time (UTC) | temp F | wind direction | speed MPH | gust MPH | rain 1hr in | rain 24hr in | rain mn in | humidity % | barometer mb |
| 20260510104544 | 51 | 34 | 2.0 | 7.0 | 0.00 | 0.51 | 0.01 | 1 | 1013.6 |
| 20260510103041 | 50 | 325 | 1.0 | 8.0 | 0.00 | 0.51 | 0.01 | 1 | 1013.1 |
| 20260510101537 | 50 | 321 | 2.0 | 7.0 | 0.00 | 0.51 | 0.01 | 1 | 1013.1 |
| 20260510100030 | 50 | 347 | 1.0 | 7.0 | 0.00 | 0.51 | 0.01 | 1 | 1012.7 |
| 20260510094542 | 50 | 352 | 1.0 | 7.0 | 0.00 | 0.53 | 0.01 | 1 | 1012.6 |
| 20260510093022 | 51 | 333 | 2.0 | 9.0 | 0.00 | 0.53 | 0.01 | 1 | 1012.4 |
| 20260510091522 | 51 | 304 | 3.0 | 8.0 | 0.00 | 0.53 | 0.01 | 1 | 1012.3 |
| 20260510090016 | 52 | 326 | 2.0 | 9.0 | 0.00 | 0.53 | 0.01 | 1 | 1011.9 |
| 20260510084508 | 52 | 336 | 1.0 | 5.0 | 0.00 | 0.54 | 0.01 | 1 | 1011.7 |
| 20260510083004 | 52 | 311 | 0.0 | 5.0 | 0.00 | 0.54 | 0.01 | 1 | 1011.7 |
| 20260510081559 | 51 | 325 | 0.0 | 1.0 | 0.00 | 0.54 | 0.01 | 1 | 1011.4 |
| 20260510080054 | 52 | 281 | 0.0 | 0.0 | 0.00 | 0.54 | 0.01 | 1 | 1011.2 |
| 20260510074550 | 52 | 281 | 0.0 | 0.0 | 0.00 | 0.56 | 0.01 | 1 | 1011.1 |
| 20260510073048 | 53 | 281 | 0.0 | 2.0 | 0.00 | 0.56 | 0.01 | 1 | 1010.8 |
| 20260510071549 | 53 | 246 | 0.0 | 0.0 | 0.00 | 0.56 | 0.01 | 1 | 1010.8 |
| 20260510070037 | 53 | 243 | 0.0 | 0.0 | 0.00 | 0.56 | 0.01 | 1 | 1010.7 |
| 20260510064532 | 53 | 195 | 0.0 | 0.0 | 0.00 | 0.59 | 0.01 | 1 | 1010.7 |
| 20260510063027 | 52 | 193 | 0.0 | 2.0 | 0.00 | 0.59 | 0.01 | 1 | 1010.6 |
| 20260510061522 | 52 | 197 | 0.0 | 0.0 | 0.00 | 0.59 | 0.01 | 1 | 1010.3 |
| 20260510060019 | 53 | 199 | 0.0 | 0.0 | 0.01 | 0.59 | 0.01 | 1 | 1010.2 |
| 20260510054515 | 53 | 193 | 1.0 | 3.0 | 0.01 | 0.63 | 0.01 | 1 | 1010.3 |
| 20260510053034 | 54 | 213 | 1.0 | 3.0 | 0.01 | 0.63 | 0.01 | 1 | 1010.6 |
| 20260510051506 | 53 | 167 | 3.0 | 7.0 | 0.01 | 0.63 | 0.01 | 1 | 1010.6 |
| 20260510050003 | 53 | 149 | 0.0 | 0.0 | 0.00 | 0.65 | 0.00 | 1 | 1010.5 |
| 20260510044558 | 53 | 143 | 0.0 | 1.0 | 0.01 | 0.65 | 0.00 | 1 | 1010.2 |
| 20260510043102 | 53 | 156 | 0.0 | 0.0 | 0.10 | 0.65 | 0.00 | 1 | 1010.2 |
| 20260510041549 | 53 | 149 | 0.0 | 0.0 | 0.10 | 0.65 | 0.00 | 1 | 1010.2 |
| 20260510040045 | 54 | 149 | 0.0 | 0.0 | 0.16 | 0.65 | 0.00 | 1 | 1010.4 |
| 20260510034544 | 54 | 118 | 0.0 | 3.0 | 0.16 | 0.65 | 0.63 | 1 | 1010.7 |
| 20260510033039 | 54 | 146 | 0.0 | 1.0 | 0.08 | 0.56 | 0.55 | 1 | 1010.1 |
| 20260510031537 | 54 | 338 | 0.0 | 3.0 | 0.08 | 0.56 | 0.55 | 1 | 1010.2 |
| 20260510030030 | 54 | 285 | 0.0 | 2.0 | 0.02 | 0.51 | 0.49 | 1 | 1011.0 |
| 20260510024527 | 54 | 158 | 0.0 | 1.0 | 0.01 | 0.51 | 0.47 | 1 | 1009.8 |
| 20260510023021 | 53 | 153 | 0.0 | 0.0 | 0.01 | 0.51 | 0.47 | 1 | 1009.6 |
| 20260510021531 | 53 | 183 | 0.0 | 0.0 | 0.01 | 0.51 | 0.47 | 1 | 1009.6 |
| 20260510020013 | 53 | 192 | 0.0 | 0.0 | 0.01 | 0.51 | 0.47 | 1 | 1009.6 |
| 20260510014508 | 54 | 192 | 0.0 | 0.0 | 0.07 | 0.51 | 0.46 | 1 | 1009.6 |
| 20260510013004 | 54 | 185 | 0.0 | 0.0 | 0.30 | 0.51 | 0.46 | 1 | 1009.4 |
| 20260510011600 | 54 | 194 | 0.0 | 0.0 | 0.30 | 0.51 | 0.46 | 1 | 1009.1 |
| 20260510010055 | 54 | 296 | 1.0 | 8.0 | 0.30 | 0.51 | 0.46 | 1 | 1009.7 |
| 20260510004553 | 55 | 316 | 2.0 | 10.0 | 0.23 | 0.45 | 0.39 | 1 | 1009.6 |
| 20260510003047 | 60 | 313 | 7.0 | 18.0 | 0.01 | 0.23 | 0.17 | 55 | 1009.3 |
| 20260510001544 | 64 | 214 | 2.0 | 4.0 | 0.00 | 0.22 | 0.16 | 59 | 1006.9 |
| 20260510000048 | 64 | 219 | 1.0 | 3.0 | 0.00 | 0.22 | 0.16 | 59 | 1007.1 |
| 20260509234536 | 65 | 204 | 1.0 | 8.0 | 0.00 | 0.22 | 0.16 | 58 | 1006.9 |
| 20260509233033 | 66 | 208 | 1.0 | 4.0 | 0.00 | 0.22 | 0.16 | 57 | 1006.8 |
| 20260509231527 | 66 | 237 | 4.0 | 9.0 | 0.00 | 0.22 | 0.16 | 55 | 1006.5 |
| 20260509230022 | 67 | 226 | 3.0 | 6.0 | 0.00 | 0.22 | 0.16 | 55 | 1006.4 |
| 20260509224519 | 67 | 196 | 3.0 | 6.0 | 0.00 | 0.22 | 0.16 | 56 | 1006.5 |
| 20260509223015 | 67 | 221 | 4.0 | 9.0 | 0.00 | 0.22 | 0.16 | 55 | 1006.5 |
| 20260509221515 | 67 | 212 | 4.0 | 9.0 | 0.00 | 0.22 | 0.16 | 55 | 1006.7 |
| 20260509220111 | 67 | 194 | 4.0 | 9.0 | 0.00 | 0.22 | 0.16 | 56 | 1006.7 |
| 20260509214506 | 67 | 149 | 4.0 | 8.0 | 0.00 | 0.22 | 0.16 | 56 | 1006.8 |
| 20260509213003 | 67 | 201 | 5.0 | 9.0 | 0.00 | 0.22 | 0.16 | 54 | 1006.8 |
| 20260509211556 | 67 | 183 | 2.0 | 7.0 | 0.00 | 0.22 | 0.16 | 57 | 1007.2 |
| 20260509210058 | 68 | 237 | 3.0 | 8.0 | 0.00 | 0.22 | 0.16 | 54 | 1007.3 |
| 20260509204548 | 69 | 158 | 3.0 | 6.0 | 0.00 | 0.22 | 0.16 | 55 | 1007.3 |
| 20260509203056 | 68 | 219 | 3.0 | 8.0 | 0.00 | 0.22 | 0.16 | 54 | 1007.4 |
| 20260509201538 | 68 | 219 | 3.0 | 9.0 | 0.00 | 0.22 | 0.16 | 56 | 1007.7 |
| 20260509200037 | 68 | 236 | 4.0 | 7.0 | 0.00 | 0.22 | 0.16 | 53 | 1008.1 |
| 20260509194533 | 67 | 234 | 3.0 | 6.0 | 0.00 | 0.23 | 0.16 | 54 | 1008.3 |
| 20260509193030 | 67 | 247 | 2.0 | 8.0 | 0.00 | 0.23 | 0.16 | 56 | 1008.5 |
| 20260509191534 | 66 | 186 | 2.0 | 5.0 | 0.00 | 0.23 | 0.16 | 56 | 1008.7 |
| 20260509190019 | 67 | 226 | 2.0 | 9.0 | 0.00 | 0.23 | 0.16 | 55 | 1008.8 |
| 20260509184528 | 66 | 213 | 4.0 | 7.0 | 0.00 | 0.24 | 0.16 | 55 | 1008.9 |
| 20260509183008 | 66 | 213 | 2.0 | 6.0 | 0.00 | 0.24 | 0.16 | 54 | 1008.9 |
| 20260509181503 | 65 | 215 | 2.0 | 7.0 | 0.00 | 0.24 | 0.16 | 53 | 1009.1 |
| 20260509174619 | 65 | 159 | 3.0 | 7.0 | 0.00 | 0.25 | 0.16 | 47 | 1009.1 |
| 20260509173052 | 64 | 204 | 2.0 | 8.0 | 0.00 | 0.25 | 0.16 | 49 | 1009.1 |
| 20260509171545 | 63 | 217 | 2.0 | 9.0 | 0.00 | 0.25 | 0.16 | 48 | 1009.3 |
| 20260509170041 | 63 | 207 | 3.0 | 6.0 | 0.00 | 0.25 | 0.16 | 48 | 1009.4 |
| 20260509164536 | 61 | 245 | 2.0 | 6.0 | 0.00 | 0.25 | 0.16 | 13 | 1009.4 |
| 20260509163039 | 60 | 249 | 2.0 | 5.0 | 0.00 | 0.25 | 0.16 | 5 | 1009.6 |
| 20260509161528 | 59 | 236 | 2.0 | 6.0 | 0.00 | 0.25 | 0.16 | 1 | 1009.6 |
| 20260509160026 | 57 | 236 | 1.0 | 4.0 | 0.00 | 0.25 | 0.16 | 1 | 1009.7 |
| 20260509154519 | 56 | 201 | 0.0 | 4.0 | 0.00 | 0.25 | 0.16 | 1 | 1009.7 |
| 20260509153022 | 55 | 238 | 0.0 | 4.0 | 0.00 | 0.25 | 0.16 | 1 | 1009.6 |
| 20260509151511 | 55 | 215 | 0.0 | 4.0 | 0.00 | 0.25 | 0.16 | 1 | 1009.4 |
| 20260509150006 | 55 | 222 | 0.0 | 3.0 | 0.00 | 0.25 | 0.16 | 1 | 1009.3 |
| 20260509144505 | 54 | 231 | 0.0 | 4.0 | 0.00 | 0.25 | 0.16 | 1 | 1009.3 |
| 20260509143007 | 54 | 211 | 1.0 | 5.0 | 0.00 | 0.25 | 0.16 | 1 | 1009.3 |
| 20260509141559 | 55 | 208 | 1.0 | 3.0 | 0.00 | 0.25 | 0.16 | 1 | 1009.3 |
| 20260509140100 | 54 | 231 | 2.0 | 5.0 | 0.00 | 0.25 | 0.16 | 1 | 1009.1 |
| 20260509134551 | 52 | 213 | 0.0 | 2.0 | 0.00 | 0.25 | 0.16 | 1 | 1009.5 |
| 20260509133047 | 52 | 224 | 0.0 | 2.0 | 0.00 | 0.25 | 0.16 | 1 | 1009.6 |
| 20260509131542 | 51 | 219 | 0.0 | 0.0 | 0.00 | 0.25 | 0.16 | 1 | 1009.7 |
| 20260509130041 | 51 | 226 | 0.0 | 1.0 | 0.00 | 0.25 | 0.16 | 1 | 1009.8 |
| 20260509124540 | 51 | 226 | 0.0 | 3.0 | 0.00 | 0.25 | 0.16 | 1 | 1009.9 |
| 20260509123029 | 51 | 236 | 0.0 | 2.0 | 0.00 | 0.25 | 0.16 | 1 | 1009.8 |
| 20260509121526 | 51 | 184 | 0.0 | 3.0 | 0.00 | 0.25 | 0.16 | 1 | 1009.7 |
| 20260509120020 | 50 | 211 | 0.0 | 3.0 | 0.00 | 0.25 | 0.16 | 1 | 1009.9 |
| 20260509114515 | 50 | 210 | 1.0 | 3.0 | 0.00 | 0.25 | 0.16 | 1 | 1009.9 |
| 20260509113012 | 50 | 193 | 1.0 | 3.0 | 0.01 | 0.25 | 0.16 | 1 | 1009.8 |
| 20260509111506 | 50 | 195 | 0.0 | 2.0 | 0.01 | 0.25 | 0.16 | 1 | 1009.8 |
| 20260509110002 | 50 | 192 | 1.0 | 2.0 | 0.01 | 0.25 | 0.16 | 1 | 1009.6 |